Location: Unspecified
(48.7670°N, 0.0000°E)
Time: 05:24:02
(UTC+00:00)

Altair - Pass Details

Date: 27 June 2019
Orbit: 1501 x 1683 km, 47.2° (Epoch: 12 October)

Event Time Altitude Azimuth Distance (km) Brightness Sun altitude
Rises 20:27:34 0° 258° (WSW) 4,705 10.6 -3.4°
Reaches altitude 10° 20:30:34 10° 258° (WSW) 3,744 10.1 -3.8°
Maximum altitude 20:40:07 81° 173° (S) 1,623 7.6 -4.9°
Drops below altitude 10° 20:50:03 10° 88° (E) 3,891 9.2 -6.1°
Sets 20:53:14 0° 88° (E) 4,897 9.7 -6.4°
